Theta_e
321 321 321 322 322 322 322 323 323 324 324 324 325 325 325 325 324 325 325 325 325 325 325 325 326 325 325 326 327 326 320 304 304 304 303 304 311 329 331 335 333 335 327 303 302 303 301 301 302 300 302 302 301 300 301 305 299 300 292 286 284 285 285 287 289 289 293 293 293 292 292 294 293 292 297 296 296 294 293 294 295 296 293 294 294 295 298 298
320 320 321 321 321 322 322 322 323 323 323 324 324 325 324 325 324 324 324 324 325 324 325 326 326 325 326 325 327 326 316 306 303 303 304 317 331 337 336 337 335 333 318 304 302 298 299 300 299 300 300 299 301 299 303 301 303 295 287 285 287 284 290 292 290 291 292 292 291 292 290 292 295 294 295 295 291 292 294 293 293 296 296 295 294 296 297 297
320 320 320 321 321 321 321 322 322 323 323 323 323 324 323 323 324 324 324 324 325 324 325 325 326 325 326 327 325 325 314 308 303 301 306 329 335 337 338 336 334 329 309 306 300 300 300 299 298 299 298 298 297 298 300 299 302 295 291 287 287 289 290 291 292 294 292 294 295 292 291 291 292 294 295 294 294 290 292 292 293 294 298 297 293 295 296 296
320 320 320 320 321 321 321 321 322 322 322 323 323 323 323 323 323 324 324 324 324 324 324 325 325 325 325 325 327 316 307 298 295 299 303 323 332 339 338 336 334 324 310 307 301 300 298 298 298 299 297 297 292 300 298 299 298 295 293 289 290 290 292 295 294 295 296 294 293 292 291 290 290 291 293 290 292 293 294 295 297 296 297 299 293 294 295 295
319 320 320 320 321 321 320 321 321 322 322 322 323 323 322 322 323 323 324 324 324 324 324 325 325 325 325 326 323 310 301 292 300 299 303 333 335 336 337 335 332 310 306 303 302 299 298 297 297 297 297 292 293 297 296 296 296 295 296 296 293 291 292 296 294 292 292 290 291 290 291 294 292 292 292 292 292 295 294 293 296 299 299 297 293 294 294 295
320 320 320 320 320 320 320 320 321 321 322 322 322 322 322 322 323 323 323 323 324 324 324 325 325 325 325 325 309 305 297 288 302 307 328 335 335 338 337 333 329 307 306 305 303 298 301 299 298 296 294 293 292 294 291 297 298 293 294 294 295 293 295 295 295 291 290 293 292 292 293 292 292 293 289 292 295 299 297 294 296 298 299 298 296 294 294 294
320 320 320 320 320 320 320 320 321 321 322 322 321 322 322 323 323 322 322 322 323 324 324 324 324 325 324 322 305 299 297 295 298 305 329 334 335 335 335 332 323 309 305 303 300 300 298 296 297 292 291 292 290 291 292 295 297 295 294 290 294 295 296 298 298 295 292 292 293 292 291 292 292 292 291 291 298 299 299 293 294 295 295 295 294 294 295 295
320 320 320 319 319 320 320 320 320 321 321 322 322 322 322 322 322 322 322 322 322 323 323 323 324 325 323 307 306 297 298 298 301 309 330 333 326 326 320 309 308 305 305 304 300 298 296 295 296 293 293 293 290 293 293 294 295 294 294 293 295 295 295 296 294 292 291 291 290 290 291 295 293 293 291 295 299 298 297 296 296 293 292 293 295 294 295 295
320 320 320 319 319 318 319 320 321 321 321 321 321 321 322 322 321 322 322 322 322 322 323 323 323 324 322 302 298 297 295 301 304 305 318 318 313 307 303 304 305 305 301 300 298 299 298 295 295 295 293 292 292 294 291 294 291 294 296 294 292 293 293 292 291 290 290 291 290 292 293 294 293 292 293 297 299 300 297 296 296 293 291 292 294 295 295 295
320 320 320 319 319 319 319 320 321 321 321 321 321 321 322 322 322 322 322 322 322 322 322 323 324 323 307 300 297 293 298 302 307 308 313 312 310 309 305 302 307 302 300 298 296 297 298 294 299 296 297 295 294 294 292 292 291 291 292 292 293 294 292 292 292 293 290 290 288 293 295 296 292 292 294 299 296 295 294 293 292 292 293 293 294 294 295 295
320 320 320 319 319 319 320 321 321 321 322 322 322 322 322 322 322 321 322 322 322 322 322 323 324 316 305 300 295 293 301 307 305 309 311 308 308 304 304 303 304 302 298 297 297 298 298 296 297 297 300 294 294 291 293 293 292 292 292 290 291 290 291 291 290 292 292 294 290 294 293 294 289 291 294 300 291 294 294 291 290 290 293 294 293 293 294 295
321 320 320 320 319 319 320 320 321 321 321 321 322 322 321 321 321 321 321 321 322 322 322 323 323 313 303 298 295 297 305 307 305 308 309 307 304 303 302 302 303 303 300 296 296 298 298 297 298 298 293 296 291 292 291 290 294 293 292 291 291 290 292 295 291 292 291 293 289 291 291 292 289 289 297 298 297 295 293 294 292 291 292 293 293 293 293 294
321 321 320 320 320 319 320 320 320 320 320 321 320 320 320 320 320 321 321 321 321 322 322 323 316 311 304 295 299 303 305 302 303 306 306 304 303 302 301 299 302 299 299 298 297 300 297 298 300 297 294 296 290 292 293 294 292 291 290 288 291 290 290 294 290 290 290 292 288 291 285 284 292 294 296 298 295 293 292 295 295 293 293 293 292 293 294 294
321 321 320 320 320 320 320 320 321 320 321 321 320 320 320 320 321 321 321 321 322 321 322 323 310 306 298 294 298 305 305 300 304 305 304 305 304 304 303 304 302 301 302 299 300 301 300 298 299 298 296 295 293 294 295 289 288 290 287 289 286 284 286 291 291 289 291 290 290 291 287 287 292 296 296 295 293 293 294 295 296 295 293 293 293 293 294 294
321 320 320 320 320 320 319 320 321 321 320 320 320 320 320 320 321 321 321 321 322 322 322 316 306 300 294 297 302 305 317 302 303 302 304 304 302 302 302 303 302 300 301 301 302 301 299 299 299 297 294 294 295 293 288 284 283 285 286 283 280 284 286 292 290 289 291 289 288 291 285 289 292 296 297 293 291 290 291 293 294 294 294 293 292 292 293 295
321 320 320 320 320 320 320 320 320 320 320 320 320 320 320 320 320 321 321 320 322 321 316 306 306 297 292 292 300 314 304 302 301 303 302 306 302 301 299 301 300 299 301 299 299 298 297 299 296 291 293 293 292 285 281 285 284 281 286 283 286 281 284 286 291 286 291 290 289 292 288 286 288 294 296 293 293 290 292 293 294 294 294 294 293 293 293 294
320 320 320 320 320 320 320 320 319 319 320 320 320 320 320 320 320 321 322 321 317 316 310 302 305 303 293 298 306 300 299 302 303 303 303 303 302 301 301 299 299 297 297 298 298 300 295 297 295 293 288 292 285 285 284 279 283 284 282 283 282 284 285 284 287 291 286 290 287 289 287 289 293 293 294 294 290 289 288 291 293 293 293 293 293 293 293 293
321 321 320 320 320 320 320 319 319 320 320 320 320 319 316 319 322 319 314 312 312 311 309 309 301 296 296 299 296 298 302 301 303 302 301 300 301 299 297 296 295 295 296 295 297 295 294 293 290 290 287 289 287 285 282 281 284 283 281 281 283 282 284 287 285 285 288 287 288 287 287 288 291 292 293 295 295 290 290 293 294 294 293 294 294 294 294 294
321 320 320 320 320 320 320 319 319 320 320 320 319 317 317 317 306 306 309 307 299 296 294 294 293 290 288 296 299 297 302 305 302 303 302 303 301 298 298 296 296 297 293 291 291 293 290 290 289 287 286 287 287 288 287 288 288 286 285 285 282 283 283 283 288 291 290 290 287 285 288 290 291 291 293 295 295 294 294 294 294 293 294 294 295 295 296 296
321 320 320 320 320 320 319 320 320 320 320 315 307 305 299 297 292 300 299 301 299 295 295 294 301 295 295 296 297 301 305 303 302 300 301 302 303 299 298 295 294 292 290 289 290 291 293 288 286 285 289 290 290 289 291 291 290 287 285 283 285 285 286 287 289 290 287 286 287 289 289 289 290 291 293 295 295 294 294 294 294 295 295 295 296 296 297 297
320 320 320 320 320 319 319 320 320 320 319 308 302 296 292 293 291 289 293 296 300 300 298 298 300 301 299 300 299 301 301 299 300 300 302 302 299 301 296 295 292 290 289 289 290 292 292 286 286 290 292 292 291 291 290 289 287 287 286 283 285 283 285 290 290 291 287 286 285 286 288 289 290 292 293 294 293 293 294 295 295 295 295 296 296 296 297 298
320 320 320 320 320 320 320 320 320 319 315 300 300 297 296 296 298 298 294 291 295 296 296 299 299 299 302 302 300 300 299 297 297 300 303 303 298 298 294 293 288 291 288 288 289 287 285 285 289 292 294 291 288 288 287 287 287 285 286 285 283 285 287 290 290 292 289 285 287 288 287 289 290 291 293 293 294 295 296 296 297 296 296 297 297 297 297 298
320 320 320 320 319 320 320 320 319 316 303 301 297 296 297 300 299 298 298 292 292 297 296 296 295 296 299 302 300 300 298 296 296 298 301 300 296 296 292 291 290 287 288 289 289 285 283 285 290 293 291 289 288 287 286 285 284 283 284 281 283 287 284 284 285 286 286 288 283 281 285 288 289 291 291 293 294 295 296 296 296 296 295 296 297 298 298 297
319 319 320 319 320 320 320 319 318 306 301 297 298 299 301 297 298 300 297 290 290 293 296 297 297 295 296 297 300 301 298 295 296 296 300 300 296 292 293 292 287 286 288 289 290 289 289 289 290 290 289 289 289 288 286 284 287 285 286 284 285 285 287 286 285 284 285 286 285 286 286 288 289 289 290 292 294 293 294 295 295 296 296 297 298 297 297 297
319 319 319 319 319 319 319 319 305 302 301 299 298 299 298 297 299 299 294 289 286 290 296 294 297 296 297 300 301 297 296 297 295 295 299 300 292 292 291 290 288 289 290 289 288 287 288 290 288 288 288 287 286 286 286 287 285 285 284 287 288 289 287 286 286 285 281 282 283 284 282 284 284 288 289 291 289 290 292 292 293 295 296 296 295 295 296 297
319 319 319 319 319 319 320 308 301 303 302 300 302 302 297 296 296 298 291 284 283 286 291 291 299 295 301 294 299 296 295 293 293 295 299 298 300 296 291 290 290 290 288 287 288 287 288 289 290 289 287 286 285 286 287 287 287 285 283 287 289 288 286 285 285 283 279 277 284 284 281 282 282 283 287 286 287 290 290 290 292 294 295 295 295 296 296 296
320 319 319 319 320 319 312 302 304 304 299 299 301 299 297 298 297 299 289 283 283 289 288 293 295 293 299 296 296 295 288 287 296 296 297 298 298 296 291 288 289 288 288 287 284 284 286 286 286 288 286 285 284 283 288 288 286 284 283 284 285 285 284 285 284 284 283 281 283 283 283 279 283 284 287 289 290 289 290 292 292 294 295 295 295 295 296 297
320 320 319 320 320 318 310 306 307 304 303 303 301 299 298 298 298 298 287 278 278 292 291 290 294 299 299 295 295 291 290 291 289 294 294 294 297 294 292 288 290 288 288 287 283 287 287 285 284 284 285 283 285 289 286 289 287 283 285 284 285 286 285 283 283 282 280 279 281 281 282 281 281 285 288 288 286 288 289 291 293 295 296 296 295 295 296 297
320 319 319 319 319 320 312 311 307 304 304 302 301 299 300 299 293 286 282 279 290 287 300 293 302 296 293 296 294 287 290 288 289 291 292 295 296 293 288 288 288 286 285 289 288 287 286 288 285 288 286 285 287 287 287 289 286 286 284 284 282 281 282 283 281 283 279 277 280 280 283 278 283 284 284 284 285 286 288 292 293 294 295 295 296 296 296 296
320 320 320 319 317 314 312 310 309 308 305 304 302 301 301 298 292 287 282 278 292 287 292 293 294 290 290 289 289 289 291 288 288 289 291 291 293 292 292 291 289 289 289 288 286 287 287 290 288 287 286 288 286 285 284 288 288 285 285 287 281 281 279 278 278 278 281 277 281 282 283 282 279 283 282 284 286 288 290 288 291 293 293 294 295 296 297 297
319 320 320 319 313 313 312 308 312 309 306 304 304 302 299 295 288 284 281 289 294 291 292 291 289 292 290 289 287 287 290 286 289 289 289 291 291 288 289 289 287 282 280 283 285 288 287 287 287 287 288 286 285 285 284 284 284 286 287 281 283 284 278 278 270 277 275 277 280 283 284 284 279 280 282 284 284 283 289 289 290 291 291 293 295 296 296 295
315 318 320 317 317 316 312 310 312 310 308 307 306 302 298 290 290 283 285 297 290 290 287 287 287 286 287 288 287 286 287 288 286 288 287 285 284 286 286 286 284 280 278 279 283 281 283 286 286 288 289 291 286 287 283 282 286 285 282 284 280 275 275 269 272 271 272 277 278 281 282 279 281 286 282 285 287 287 286 289 291 291 292 292 293 294 295 294
314 315 317 318 316 314 316 311 310 310 309 309 306 303 294 287 283 289 287 291 290 291 288 290 288 289 288 287 286 285 287 287 287 287 286 285 284 286 283 286 284 286 283 280 279 280 283 282 284 287 289 289 289 286 281 283 284 284 284 280 277 272 270 270 267 265 269 276 277 279 281 280 285 281 288 292 294 294 293 290 290 292 293 293 292 293 293 294
314 315 314 316 317 317 313 310 310 310 308 307 303 297 291 284 286 294 290 292 294 289 289 287 287 286 287 287 284 286 287 287 287 287 289 286 285 282 284 286 284 286 286 281 282 279 277 282 282 286 284 287 291 291 290 286 283 286 284 286 282 279 270 268 270 276 278 279 276 276 276 275 274 281 283 292 293 289 288 290 289 289 289 290 292 292 292 293
314 315 315 315 315 317 311 311 310 311 308 304 298 292 285 285 288 285 284 286 286 288 289 288 287 286 286 286 284 286 289 286 285 284 286 286 283 281 281 284 286 286 282 282 282 277 282 283 283 288 287 289 289 290 285 282 283 283 283 281 279 281 279 281 280 277 280 275 273 273 278 276 282 285 286 285 287 289 290 288 287 289 290 292 292 292 293 294
313 314 315 312 311 315 312 311 311 311 307 301 292 286 286 290 285 287 290 290 289 288 287 288 284 286 282 281 282 287 291 287 287 287 286 286 285 284 283 282 286 289 287 284 286 281 284 279 285 287 286 287 287 285 290 289 280 281 284 281 285 284 285 282 282 280 275 273 277 282 278 282 283 288 289 289 289 289 289 288 289 290 292 290 290 292 292 294
306 312 309 311 311 313 312 311 312 309 306 300 292 287 292 290 292 286 295 291 291 290 289 288 287 287 284 281 284 284 288 289 287 286 285 287 286 288 284 284 287 289 291 290 284 289 285 286 288 285 286 288 284 285 287 284 286 283 279 283 285 284 283 281 275 275 279 277 278 283 281 283 281 280 282 284 283 284 283 286 288 289 288 288 291 292 293 293
305 309 310 310 312 312 312 312 312 307 302 296 290 293 292 291 295 294 292 294 295 294 290 288 289 291 286 286 286 286 288 288 287 286 283 288 286 291 286 287 289 290 292 293 287 287 289 282 287 286 287 288 285 288 287 286 287 286 285 287 285 279 278 280 275 274 276 275 278 281 283 283 285 285 289 286 285 286 288 286 284 285 285 288 291 292 291 291
304 305 300 308 314 311 311 312 310 304 298 291 289 291 294 293 295 291 295 295 295 294 291 292 290 292 291 287 288 287 287 287 288 285 287 288 285 292 290 291 290 290 290 292 287 287 288 282 284 286 287 287 284 285 280 283 287 286 287 286 286 284 284 281 283 279 281 277 279 278 284 281 288 288 289 289 289 290 288 285 286 285 290 295 295 294 293 292
301 299 295 305 310 311 311 311 305 300 295 288 291 291 293 290 294 294 294 297 293 294 290 291 293 290 291 291 292 290 288 289 289 289 289 289 291 299 294 295 292 293 290 292 289 290 285 287 279 288 285 288 283 285 284 286 282 284 284 282 285 284 285 284 282 280 280 279 279 278 277 283 289 294 292 292 292 286 287 288 287 290 291 291 289 289 290 290
301 298 299 309 311 312 312 306 298 293 292 292 295 294 294 292 291 291 295 296 294 298 294 292 292 291 291 290 290 292 288 289 289 288 288 289 291 287 295 296 296 294 294 290 289 288 287 284 284 285 285 286 288 290 288 288 290 288 287 285 287 284 282 280 278 285 281 281 278 279 277 285 291 295 295 294 295 286 286 286 288 288 287 288 291 291 289 291
296 290 296 310 311 312 305 295 294 294 291 291 292 295 292 300 291 293 292 292 294 292 295 293 293 293 290 292 292 291 287 287 289 288 289 289 292 292 293 295 294 295 292 287 287 290 290 285 286 283 286 287 290 293 293 290 290 289 289 288 290 289 287 283 278 281 285 283 285 283 281 282 294 295 296 296 296 293 287 285 287 289 290 289 289 289 290 291
293 291 302 308 312 309 301 293 296 293 291 292 295 294 293 292 289 289 291 290 290 292 290 291 291 291 292 292 291 291 292 287 289 289 289 290 291 295 297 297 293 292 292 286 290 290 292 284 282 285 288 290 291 292 291 286 286 285 286 286 285 285 287 286 285 286 283 283 283 282 279 283 294 296 296 296 296 295 292 287 289 289 288 288 289 291 292 293
289 290 295 306 310 307 297 288 289 290 293 295 294 294 294 292 292 291 291 289 291 288 290 289 289 294 291 293 291 289 291 285 290 291 289 291 290 296 296 295 296 292 292 286 290 289 287 284 287 282 282 284 285 285 286 288 284 284 286 288 288 288 288 288 286 283 282 283 284 281 276 282 290 293 294 294 294 294 294 288 285 288 288 289 290 290 289 287
292 294 295 298 306 302 292 296 293 290 292 292 293 292 294 293 292 295 295 291 291 289 290 289 293 289 289 291 291 291 290 291 287 289 290 287 290 292 294 295 296 293 296 292 296 292 288 285 284 280 277 275 275 276 277 281 284 286 284 287 288 286 285 283 281 283 279 283 285 281 281 287 292 291 292 293 293 294 294 295 286 286 288 289 288 288 289 290
287 280 287 293 299 299 298 299 295 292 288 289 289 292 294 292 293 291 292 292 294 290 293 290 287 290 288 288 287 288 289 291 288 284 287 286 285 286 287 289 292 292 294 296 294 292 282 285 288 286 283 281 283 285 284 283 281 282 281 286 287 287 287 286 285 282 280 283 282 284 285 285 288 290 291 292 294 293 294 295 295 293 292 288 287 289 290 290
290 284 284 281 293 293 292 296 293 293 289 293 287 290 289 291 292 292 294 288 291 293 290 291 290 289 287 290 288 288 289 288 290 289 287 288 289 287 288 287 288 290 292 292 292 287 278 282 286 287 286 287 288 287 289 289 286 286 285 284 285 285 285 284 282 280 286 282 278 286 287 285 286 290 291 292 293 294 294 295 296 296 295 295 292 289 289 288
282 284 289 290 287 284 287 287 292 291 293 291 287 289 287 287 287 286 289 291 289 289 288 287 291 291 291 288 287 284 286 286 286 285 286 283 282 285 285 287 287 288 288 286 289 288 281 281 285 285 285 287 288 288 289 289 288 287 287 287 286 287 286 282 283 285 285 282 280 285 287 285 287 289 291 293 294 294 294 295 295 296 292 288 287 286 286 286
285 284 284 288 284 286 287 287 287 287 287 289 286 289 287 288 287 289 288 287 289 287 292 285 285 284 285 286 285 283 284 282 282 283 281 281 280 281 281 283 286 287 285 285 286 287 285 282 286 286 284 285 286 287 288 286 286 287 286 286 287 286 286 286 286 287 286 285 286 286 286 286 289 290 291 292 294 294 294 294 292 286 283 285 285 284 284 284
279 283 280 287 286 284 284 285 285 284 283 287 285 286 288 287 287 289 289 288 285 287 293 288 284 284 283 282 284 282 283 283 282 278 282 281 280 283 280 282 283 285 285 283 285 286 286 281 287 284 282 282 286 287 286 285 284 283 285 286 287 286 286 286 286 286 286 285 287 286 286 285 291 293 291 288 285 287 286 285 284 284 283 282 282 282 282 283
286 289 290 283 281 281 281 279 281 283 283 284 284 285 288 287 287 286 284 288 287 285 287 283 285 284 285 284 284 284 286 282 283 282 283 283 277 282 280 279 285 280 282 282 285 285 285 280 285 283 279 279 284 285 285 286 285 283 283 284 284 283 282 284 283 285 284 283 285 285 283 284 283 279 283 282 282 282 283 281 281 281 281 281 280 281 280 281
285 284 289 287 278 283 278 280 279 280 278 282 285 284 283 282 283 286 282 287 287 288 284 283 284 283 281 283 281 284 286 285 285 286 286 287 287 285 286 284 284 282 282 281 282 281 282 281 280 280 277 277 282 284 283 283 282 279 281 284 285 285 286 286 287 287 287 287 283 282 282 276 277 281 278 279 279 279 281 281 279 280 280 280 280 280 280 280
Wind_Speed
13 13 13 13 14 14 14 14 14 14 14 14 14 14 14 13 13 14 14 14 14 14 14 14 13 12 11 10 10 9 9 1 1 0 1 9 5 4 8 4 10 11 9 5 5 5 1 1 2 3 2 1 1 0 1 1 1 1 1 3 3 5 3 6 5 8 1 1 3 3 2 2 4 2 1 1 1 2 1 2 5 4 4 0 3 2 3 6
12 12 13 13 13 13 13 14 14 14 14 14 14 14 14 14 14 14 14 13 13 14 14 14 15 14 11 10 8 8 4 0 1 0 12 2 2 4 5 6 11 11 9 5 7 4 6 1 1 2 3 1 1 1 1 1 1 3 1 2 8 5 8 7 5 5 1 6 3 3 1 4 8 0 2 1 5 2 5 5 1 5 7 1 3 3 7 9
11 11 11 12 12 13 13 13 14 14 14 14 15 14 14 14 14 14 14 14 14 14 14 14 15 14 12 10 9 6 2 2 0 3 4 2 2 2 5 8 11 12 5 3 4 8 6 9 6 4 2 1 1 2 1 1 3 3 4 5 8 8 5 5 4 5 7 1 7 6 3 4 3 1 0 3 9 3 9 6 2 6 11 11 2 2 6 8
10 10 11 11 12 12 13 13 13 14 14 15 15 15 15 14 15 15 14 14 14 14 14 14 15 13 12 10 9 3 0 1 0 2 2 5 2 4 5 8 11 7 2 3 5 4 4 7 4 4 1 1 3 0 1 4 2 2 2 5 5 4 2 7 8 10 10 2 3 2 0 2 5 5 1 3 5 11 11 7 9 12 13 13 7 6 7 9
10 11 11 11 12 12 13 13 13 14 14 15 15 15 15 15 15 16 15 14 14 14 14 14 14 13 11 9 8 1 2 3 2 1 2 2 4 6 7 8 9 4 2 6 8 4 4 4 3 1 2 2 1 1 4 2 2 4 10 6 5 2 2 10 6 6 3 3 2 1 4 7 0 0 5 6 10 16 4 7 12 13 12 8 9 11 7 10
9 10 11 12 12 12 12 13 13 14 15 15 14 15 15 15 14 15 15 15 15 15 15 14 14 13 11 7 1 1 2 3 0 1 3 4 5 5 7 8 8 5 6 4 3 3 4 1 4 1 1 1 5 6 3 3 4 5 4 6 6 6 6 2 1 4 3 2 1 4 4 2 3 6 4 6 14 19 3 4 10 12 13 10 6 9 10 12
7 9 10 11 11 12 13 13 13 14 15 15 15 15 15 14 14 14 14 14 14 14 15 14 14 12 13 4 0 2 2 6 2 5 6 5 5 6 7 7 8 5 4 4 2 3 2 3 3 3 2 0 4 4 5 2 1 4 8 1 6 7 11 11 7 6 5 4 6 3 3 4 5 11 1 5 18 17 10 6 6 7 4 4 8 14 17 18
7 7 8 9 11 11 13 13 14 14 15 15 16 16 15 15 14 14 13 13 13 13 13 13 12 11 10 1 1 1 1 5 8 1 5 7 7 7 8 4 5 5 5 7 7 5 4 5 6 2 2 5 3 6 1 1 1 5 7 4 6 2 8 8 7 6 6 7 5 3 5 14 8 8 4 17 21 10 11 7 10 6 3 5 8 13 13 14
6 7 8 8 10 11 13 13 14 14 15 16 16 16 16 16 15 13 13 13 13 13 12 12 11 11 3 1 3 4 6 6 5 5 5 7 6 7 7 3 2 6 3 2 4 7 6 6 4 6 6 1 2 2 2 2 8 7 12 2 3 5 7 5 4 6 6 4 3 3 13 14 10 4 11 26 22 14 8 8 10 6 5 8 11 13 13 14
8 9 9 9 10 12 13 13 14 14 16 16 17 17 17 17 15 14 14 13 13 12 12 10 9 9 3 1 1 4 6 4 1 5 6 8 7 7 2 2 6 5 4 3 2 4 7 6 8 6 2 1 3 4 1 6 6 4 4 4 6 8 7 5 6 5 3 4 5 6 12 17 1 6 13 12 7 0 1 5 3 5 9 10 8 9 12 13
7 9 10 10 10 12 14 14 15 15 16 17 17 17 17 17 17 17 16 14 12 12 10 10 8 4 0 2 3 10 4 5 1 4 7 8 9 8 8 6 6 6 5 1 6 7 3 5 2 3 1 5 3 3 2 4 1 2 2 5 6 5 7 9 5 10 0 7 10 9 12 13 2 2 15 23 4 2 2 5 4 5 9 9 10 10 10 12
9 9 11 11 12 13 14 16 16 16 17 17 19 19 20 20 19 18 17 15 13 11 10 9 5 1 1 2 8 9 1 2 4 4 6 8 5 8 4 7 7 6 8 5 5 4 4 3 5 2 4 1 2 0 3 3 1 1 1 7 9 6 10 12 5 6 8 7 6 7 1 11 2 9 21 20 5 5 7 10 8 8 9 10 8 9 8 14
8 10 11 12 14 14 15 16 16 17 17 19 20 20 20 19 20 18 17 15 10 10 8 5 4 1 1 5 10 7 1 1 4 6 3 2 1 1 2 3 6 4 5 4 0 2 4 5 2 1 2 1 1 1 1 1 2 3 1 0 11 7 10 10 3 2 6 4 7 6 7 6 15 16 17 15 5 3 5 12 12 8 10 9 7 9 11 11
9 9 11 11 13 15 15 16 17 17 18 19 20 19 19 18 17 16 16 15 13 9 6 3 2 1 1 7 6 2 1 4 6 3 4 3 2 2 2 3 4 2 0 2 1 2 4 1 4 2 1 3 4 2 2 4 4 4 3 1 5 7 10 2 3 1 1 4 10 4 9 8 14 21 13 9 5 6 8 12 13 10 8 8 8 9 12 14
9 9 9 12 12 12 13 16 17 18 18 18 19 20 20 20 16 15 15 11 7 2 2 4 1 3 1 8 4 5 4 2 3 6 6 7 5 1 2 2 3 2 2 3 2 1 3 5 3 1 3 0 1 4 6 2 3 2 4 6 2 6 8 15 3 6 8 2 4 6 10 12 13 20 17 2 1 4 8 11 12 11 10 8 7 9 11 15
9 9 9 11 13 13 13 14 15 17 18 19 19 19 20 19 16 13 9 6 6 2 1 0 0 2 1 6 1 3 1 3 7 4 4 6 6 5 1 5 3 4 3 2 2 3 2 3 1 3 2 2 3 2 4 6 6 3 6 6 9 3 6 9 9 4 9 2 1 11 11 1 7 17 17 4 3 5 7 11 12 12 12 12 9 9 10 11
9 9 10 11 13 14 13 15 15 18 19 18 21 19 18 15 12 7 1 2 3 3 1 0 1 0 2 3 1 2 6 5 2 1 2 1 5 5 5 4 1 3 4 4 2 3 2 2 0 1 2 5 3 5 1 3 9 7 2 7 4 7 3 5 8 9 3 7 5 7 8 11 11 9 11 10 1 2 6 12 12 11 10 10 10 9 10 10
10 10 10 11 13 13 13 14 17 19 19 19 19 16 13 13 3 10 8 6 2 3 1 1 2 1 9 2 6 7 0 3 0 2 4 0 4 4 3 3 2 5 4 2 2 4 1 2 3 6 1 3 3 3 6 10 11 9 5 4 8 4 8 13 1 5 1 3 7 2 11 14 14 12 12 16 11 6 9 12 14 12 11 12 12 12 13 12
10 10 10 12 12 12 12 15 17 19 18 21 17 12 6 3 2 2 6 1 3 1 1 2 4 5 6 5 7 6 2 2 1 3 2 5 1 3 4 4 5 7 1 2 3 4 2 4 4 2 7 9 10 11 14 19 11 13 11 10 5 7 7 7 12 11 6 15 8 6 15 17 13 13 14 15 15 15 17 14 13 13 13 14 15 16 15 16
10 13 13 14 13 12 14 15 16 18 20 12 8 5 2 2 2 0 5 1 3 5 2 4 8 2 5 5 2 1 1 2 1 2 3 0 9 4 2 3 3 4 6 6 1 4 2 7 8 9 15 16 12 16 19 19 12 4 1 4 11 11 11 8 13 11 3 4 11 16 17 19 17 14 15 16 13 15 17 17 16 14 13 14 16 17 18 17
9 11 13 13 12 12 13 15 15 16 16 5 4 3 1 0 1 4 5 9 7 5 5 5 14 10 9 0 2 1 1 2 1 0 3 2 4 10 3 3 3 3 5 4 6 1 2 7 8 16 20 16 15 14 12 8 3 6 7 6 12 5 15 16 13 10 1 4 3 5 12 18 16 14 14 14 10 17 20 20 19 17 14 16 18 19 19 20
9 10 11 13 12 12 14 14 13 14 9 2 5 5 1 0 0 1 1 6 5 8 8 14 2 7 7 10 4 3 4 3 2 3 1 3 4 7 3 5 5 11 2 3 1 1 5 11 16 21 16 2 3 2 2 7 8 6 9 9 8 10 15 11 11 17 6 1 14 10 17 19 16 14 13 14 18 18 17 18 21 14 14 16 16 18 20 17
9 9 10 10 11 12 13 13 12 7 4 5 3 2 0 1 1 0 1 1 8 4 3 7 7 12 12 9 3 4 7 11 12 3 6 4 2 6 4 5 7 2 3 6 12 5 5 6 20 16 1 3 5 4 1 2 4 6 8 5 12 10 4 11 4 5 2 6 6 4 16 17 10 13 16 17 19 18 14 16 19 15 16 20 21 20 18 18
10 9 9 9 9 11 12 13 10 4 3 2 4 1 0 3 3 2 0 3 5 7 9 6 3 3 10 6 4 10 11 4 2 8 2 7 9 3 4 7 3 4 10 12 16 14 16 5 3 4 3 7 12 8 2 5 14 7 10 7 12 13 15 12 5 5 5 5 4 12 16 18 11 15 12 15 17 16 14 15 14 19 17 19 19 17 17 20
10 9 8 8 9 8 10 11 4 1 0 1 0 2 1 3 3 3 1 5 2 6 2 2 4 4 5 3 3 4 3 1 7 1 5 10 5 3 4 2 3 10 11 9 7 9 11 7 3 5 9 6 6 6 7 9 16 7 6 13 21 17 12 9 10 8 3 6 3 3 9 13 6 14 14 11 4 7 9 11 15 21 21 15 16 18 18 15
12 10 9 8 8 7 9 5 1 0 0 1 1 1 2 3 2 1 1 2 8 4 3 4 3 2 2 1 2 5 5 4 2 5 6 4 3 4 2 2 4 10 6 4 8 5 7 3 6 8 7 7 6 8 8 9 16 9 7 13 18 12 10 9 14 4 7 3 4 1 4 20 4 5 8 6 7 12 8 8 16 17 16 12 16 14 13 15
12 11 9 9 5 3 4 1 0 0 3 1 1 1 2 4 2 1 2 4 6 4 4 1 1 1 0 0 3 4 1 4 0 4 2 3 7 0 5 6 1 1 2 2 2 6 3 3 5 3 5 6 6 5 13 13 8 10 3 6 6 7 8 10 7 6 8 1 4 1 3 6 24 4 8 12 12 11 13 16 16 16 16 16 11 12 14 16
12 10 10 9 5 5 2 1 4 3 3 0 2 3 3 4 4 0 2 5 5 1 1 1 1 1 0 1 2 2 1 1 1 0 1 3 1 1 3 6 10 6 2 5 13 1 7 2 5 4 3 5 9 17 3 12 8 6 1 5 5 8 7 1 4 5 3 4 10 6 3 5 12 6 7 9 7 11 15 17 16 15 17 10 8 12 15 18
13 12 11 8 6 7 1 0 1 3 1 3 3 3 4 4 1 3 2 4 2 2 2 2 3 0 2 1 1 1 1 3 0 1 4 1 3 1 3 5 3 2 3 9 13 2 2 2 7 9 8 10 8 3 8 12 7 4 5 6 4 4 4 2 3 2 2 2 14 7 6 4 21 1 4 1 1 10 12 16 15 14 13 9 10 10 12 13
14 13 12 7 4 2 0 2 6 2 5 4 4 5 3 1 1 0 1 8 2 2 1 1 1 1 2 3 1 2 1 2 2 2 3 2 3 3 1 0 2 2 6 2 6 8 3 2 5 5 8 5 3 1 3 9 7 4 2 1 2 4 2 3 5 2 3 7 11 15 12 7 12 6 7 8 9 11 12 4 6 11 11 10 10 12 13 12
14 13 13 11 5 4 4 3 7 7 6 4 4 4 1 2 2 2 11 4 4 3 1 1 1 3 3 2 2 1 1 1 0 1 1 1 1 3 2 1 3 2 1 3 8 7 2 1 1 4 4 3 3 2 2 0 1 2 1 1 3 6 5 1 3 3 3 12 4 13 15 12 11 4 4 6 6 5 6 7 8 10 11 10 8 10 11 10
8 10 13 10 4 6 6 4 1 5 6 4 2 1 1 2 2 9 7 2 1 2 1 1 1 1 1 1 2 1 3 0 1 3 5 2 4 4 5 8 4 0 5 4 8 3 4 10 4 2 4 11 4 2 2 3 2 4 2 1 2 5 7 4 2 1 5 11 2 1 3 3 20 12 3 7 10 9 8 7 7 9 11 11 10 11 11 8
9 7 8 10 6 5 5 3 5 6 6 2 4 2 1 3 8 9 4 1 3 1 2 3 1 0 1 2 3 1 0 3 1 1 4 0 3 6 4 5 4 4 9 1 2 4 8 1 2 5 1 4 8 8 1 1 6 7 7 5 4 2 4 6 4 3 5 7 4 5 2 10 12 6 10 14 16 16 10 7 9 9 12 11 9 10 12 13
11 7 3 5 8 8 3 7 6 8 5 3 5 2 3 3 9 4 6 8 6 2 3 1 1 1 1 5 3 3 2 3 4 2 4 2 2 3 4 5 4 4 1 0 3 3 6 9 5 6 4 5 10 13 14 7 8 11 3 11 10 8 5 4 4 10 10 9 2 3 4 9 1 4 3 13 10 5 6 6 5 6 6 8 11 12 12 14
11 6 4 2 6 7 6 6 8 6 7 4 2 4 6 11 3 2 2 3 3 2 1 1 1 1 5 1 2 2 4 3 1 3 2 5 5 4 4 5 5 3 1 1 4 2 9 10 5 2 1 7 10 3 4 5 2 3 3 3 1 8 5 10 6 6 10 5 4 2 8 3 6 2 6 6 8 9 8 7 4 6 7 10 10 11 13 13
5 2 2 2 3 4 8 7 6 6 7 4 4 4 13 8 4 3 3 3 0 1 2 3 3 1 4 3 2 0 3 4 2 3 2 4 3 4 4 4 7 16 9 9 4 4 1 5 1 2 3 2 4 1 1 3 5 2 6 6 9 2 5 6 5 4 1 1 15 5 9 10 6 11 10 9 9 13 9 9 8 10 13 7 7 10 11 12
5 4 3 2 3 4 9 9 8 7 7 6 4 10 9 4 4 2 3 1 1 3 2 4 4 5 1 2 1 1 1 1 3 2 3 2 4 7 3 5 4 5 12 8 5 4 6 5 1 5 4 0 0 1 1 2 3 7 1 8 1 2 3 2 6 1 7 12 9 4 17 14 7 14 3 3 4 6 5 7 9 8 6 7 11 11 11 11
5 3 4 5 4 6 9 10 9 5 4 5 11 14 2 4 2 4 1 1 0 3 2 2 5 7 4 1 2 1 2 2 2 3 2 1 4 4 2 2 4 9 12 8 3 4 1 7 5 1 2 2 2 0 5 1 0 5 6 1 2 5 4 2 2 5 7 11 8 8 11 16 12 18 14 10 6 6 8 7 4 6 5 7 10 12 10 9
2 2 5 5 7 11 9 11 10 10 5 6 7 13 2 6 2 2 4 5 1 2 2 4 4 2 4 2 2 1 1 3 1 0 1 3 3 2 2 2 1 4 4 4 1 3 3 4 4 2 2 2 2 2 5 2 1 1 1 2 1 1 7 7 7 3 3 13 8 12 12 13 6 13 16 19 15 12 9 6 7 7 7 8 10 11 11 12
1 2 6 1 1 8 11 10 6 4 4 12 10 10 2 2 3 5 4 6 3 3 4 3 3 5 1 6 2 8 2 3 3 5 4 2 5 8 5 1 2 4 6 7 5 1 3 1 6 1 1 1 4 5 9 7 5 2 1 3 1 3 2 0 2 4 9 12 12 11 13 8 10 12 18 24 17 7 9 10 8 7 7 7 6 7 8 9
2 3 3 2 5 9 10 7 5 10 8 2 7 8 5 4 1 2 5 5 2 1 5 3 5 7 4 5 9 5 3 5 4 6 5 4 10 8 8 12 3 12 4 1 5 4 5 5 13 4 5 10 13 4 6 6 7 8 9 11 12 11 9 11 16 4 6 9 13 12 18 7 7 8 18 22 21 6 8 8 8 7 6 7 9 10 7 9
2 5 3 2 6 11 10 9 5 2 3 8 10 5 4 3 3 5 1 1 5 4 1 2 4 7 4 9 7 4 2 4 7 7 5 11 8 13 3 6 6 5 6 5 7 6 7 3 6 10 13 16 15 16 11 6 7 9 8 12 11 13 10 11 17 13 9 12 9 15 14 11 5 11 18 21 19 9 6 6 7 7 7 7 9 7 8 9
4 6 2 3 6 11 9 9 7 6 6 3 3 4 0 2 3 3 3 2 2 4 2 4 5 5 6 7 4 7 7 7 7 9 5 8 11 13 10 13 6 4 3 3 3 4 4 2 3 13 8 12 10 12 11 3 4 5 5 6 5 13 15 16 15 12 12 8 10 11 15 7 8 13 17 18 18 18 10 6 8 7 6 7 7 10 12 13
2 2 4 1 6 3 7 10 9 11 7 5 5 6 1 3 4 5 6 3 4 2 5 4 2 10 7 6 6 8 6 9 8 17 11 8 10 10 13 12 10 7 5 5 6 2 6 2 10 14 9 10 7 4 6 4 3 7 12 13 15 14 13 12 8 4 12 14 15 15 19 7 3 5 10 14 17 19 21 6 6 7 8 7 9 10 10 8
3 3 4 3 3 3 8 5 9 6 7 10 9 11 8 3 5 11 9 5 3 4 0 3 6 1 5 4 7 7 5 14 8 5 7 4 7 3 9 14 13 14 11 5 11 1 9 6 6 11 12 13 11 13 9 10 13 9 5 12 11 11 15 10 13 10 17 10 16 17 15 9 7 4 11 15 17 19 19 16 3 6 7 8 7 9 9 8
2 3 3 2 3 6 7 6 3 3 3 8 9 10 10 12 6 4 7 7 7 4 6 2 2 1 4 3 6 7 9 6 9 1 4 2 2 1 4 12 6 6 10 13 7 2 3 3 13 14 14 16 15 13 3 3 1 5 6 14 16 16 14 13 11 12 15 14 16 16 15 16 13 10 14 19 20 21 21 21 17 9 10 8 8 8 7 9
3 1 1 2 2 6 8 3 4 5 6 4 7 3 11 11 7 4 9 5 5 8 4 6 6 5 3 7 10 11 11 12 10 13 12 14 6 5 11 7 7 11 12 5 9 3 1 6 11 17 20 19 19 20 17 13 17 10 8 6 8 11 11 14 14 18 13 14 19 9 17 18 16 13 17 20 21 24 23 21 19 15 11 12 10 13 15 15
2 4 1 3 2 4 7 8 4 6 3 3 6 2 8 9 6 8 1 3 0 1 3 2 10 10 10 4 2 4 1 6 5 9 3 4 4 9 10 6 3 6 12 6 7 2 2 6 7 12 19 17 20 21 20 19 17 17 18 18 20 20 17 16 18 18 14 15 20 14 15 17 15 14 17 20 20 21 20 20 18 16 16 17 15 15 14 13
2 2 2 4 1 3 3 3 5 2 3 3 2 4 6 12 11 5 2 3 1 2 5 8 2 6 7 5 1 3 2 5 5 4 2 5 6 5 5 7 1 7 9 8 8 2 3 6 8 11 15 14 18 19 20 21 20 20 20 22 22 20 21 22 23 19 19 21 20 21 23 27 21 20 18 17 13 15 16 16 16 18 13 12 12 12 12 11
3 0 3 3 1 4 4 3 3 5 4 5 3 7 7 7 11 7 2 3 3 3 1 6 4 2 2 2 3 1 3 1 1 2 1 5 6 0 2 5 8 7 7 7 5 3 3 5 12 11 12 12 11 14 15 18 19 21 20 20 20 19 21 20 18 18 21 24 23 27 27 24 17 15 14 14 15 14 14 15 13 10 12 11 11 11 10 10
2 1 2 5 5 3 1 1 3 4 4 2 7 3 6 5 6 4 3 2 3 3 2 3 3 3 1 1 2 3 5 4 2 4 5 2 4 2 3 4 4 12 12 6 1 3 2 6 5 8 11 10 7 10 11 12 13 15 16 17 18 19 20 15 16 17 19 21 23 20 17 13 9 13 8 11 14 15 13 12 12 10 9 9 10 11 11 11
1 2 1 1 4 3 1 3 2 2 7 3 2 3 1 2 3 4 3 3 1 2 5 4 3 3 4 5 6 1 5 1 5 6 6 7 8 10 10 10 10 8 5 9 3 7 3 5 6 7 14 11 10 7 9 12 14 16 16 17 20 20 17 18 19 19 19 17 17 15 7 7 4 8 12 13 12 10 11 8 10 11 10 9 10 10 11 10
Wind_Direction
19 16 13 10 9 5 1 359 358 357 355 355 355 354 355 356 355 354 353 351 349 350 346 342 348 347 343 337 336 344 341 74 47 29 227 239 200 223 184 67 144 130 136 100 90 99 43 40 131 355 43 50 294 59 256 43 109 62 155 124 260 205 158 212 195 191 219 225 283 326 219 179 294 312 258 39 293 233 275 253 288 294 259 225 273 346 117 137
17 14 11 8 4 0 357 355 355 354 352 351 351 350 351 350 352 352 351 349 348 347 346 343 343 346 344 337 340 343 355 76 279 189 234 232 302 217 192 135 138 138 115 102 147 148 128 233 195 72 98 183 332 160 49 222 124 130 124 119 234 187 239 162 202 221 147 258 232 271 292 181 241 133 294 273 279 267 271 258 289 273 281 277 22 93 135 144
12 9 8 4 360 355 355 353 352 351 350 348 348 347 348 347 348 351 348 346 346 346 346 342 344 343 342 342 334 359 350 1 22 280 263 53 275 208 176 152 146 155 135 151 199 155 163 192 169 108 17 141 355 202 49 241 145 225 126 233 244 213 239 223 207 236 205 264 301 286 292 161 252 166 344 221 260 288 245 245 276 247 250 239 186 158 158 166
8 5 2 360 355 353 352 351 350 348 348 347 343 344 345 344 345 349 347 344 343 344 343 342 343 344 339 337 346 330 67 42 313 246 273 255 251 160 147 144 151 146 95 68 154 131 104 86 93 103 93 149 293 20 166 233 134 250 119 213 230 213 201 260 204 238 252 212 246 247 56 320 273 223 158 233 317 260 244 220 208 226 232 240 186 185 176 176
2 1 358 355 351 349 347 346 347 346 346 344 343 342 342 342 344 344 344 342 341 341 342 339 344 341 337 337 343 74 34 47 237 229 240 156 136 126 124 132 138 106 105 137 88 67 77 103 106 54 95 215 341 33 246 235 198 119 210 223 199 128 203 252 226 215 213 182 227 290 323 258 287 317 227 216 232 267 216 223 214 229 233 217 184 198 181 185
353 353 352 349 346 344 343 341 343 344 342 341 341 340 339 338 341 339 340 339 338 338 339 339 342 340 335 335 47 78 60 335 241 278 139 152 127 112 110 118 122 106 103 102 114 107 122 45 99 133 243 121 196 174 260 182 146 234 268 255 224 212 233 258 182 214 180 241 213 294 241 333 241 267 228 198 223 255 199 205 205 219 229 220 171 155 187 192
342 348 344 342 341 338 337 337 336 338 338 338 338 336 336 338 335 337 334 335 335 334 336 336 338 340 330 338 95 83 154 254 331 261 138 124 116 114 102 98 108 97 103 119 131 140 179 126 155 214 108 336 279 201 248 174 239 228 254 227 274 204 229 251 264 274 259 228 249 216 357 279 273 288 186 216 246 247 266 244 232 232 256 126 153 182 188 194
340 338 336 335 336 333 331 331 333 333 334 333 332 333 333 332 333 330 329 328 330 330 331 331 334 335 354 52 13 347 45 250 246 298 161 118 93 98 98 64 95 113 140 182 166 180 133 155 185 133 204 190 226 162 238 145 159 208 264 218 264 209 242 257 255 271 269 263 263 303 283 257 223 246 5 267 267 254 251 240 250 234 161 179 187 193 202 205
332 332 331 329 331 332 327 325 327 328 329 329 329 328 328 328 328 325 324 324 326 326 326 326 328 337 317 76 109 324 266 236 222 189 152 125 125 105 134 147 120 141 177 158 211 179 142 242 198 179 249 223 197 182 243 181 286 208 233 220 272 263 272 257 289 243 244 268 183 285 263 264 256 308 271 260 266 274 246 244 240 217 199 199 207 202 201 206
329 331 327 328 327 329 323 322 322 323 325 325 324 324 323 324 321 321 320 322 320 324 317 321 329 326 35 81 41 274 262 212 168 153 139 128 115 112 153 144 151 148 139 217 109 135 187 213 180 210 155 248 150 215 115 156 238 167 224 236 252 266 300 276 223 261 203 219 176 200 268 271 79 156 277 267 236 317 270 234 255 210 224 220 217 213 213 209
319 322 323 325 326 322 320 320 321 320 321 320 319 318 319 320 321 321 321 317 319 312 315 309 327 346 173 137 200 252 229 97 154 142 141 137 124 136 200 170 171 157 170 111 197 194 204 153 183 100 129 223 126 276 172 225 157 241 225 306 285 290 268 255 252 267 126 279 193 203 249 274 301 194 239 267 117 43 266 263 262 230 233 231 225 220 217 220
313 315 319 321 322 319 317 320 319 321 322 317 317 317 320 318 318 317 318 317 311 310 309 312 292 148 62 114 219 230 217 188 133 151 155 147 165 202 170 164 168 175 167 200 239 246 172 173 135 124 220 83 277 340 257 237 24 252 17 319 297 331 322 276 242 241 158 250 163 172 222 291 221 212 243 249 267 268 279 277 257 239 238 239 233 229 222 224
302 310 311 316 316 316 316 317 319 320 318 319 318 317 315 313 311 311 311 313 301 303 308 308 82 136 84 293 235 232 326 170 130 129 142 215 102 96 148 151 175 159 170 179 219 232 177 144 146 179 230 159 192 243 141 66 299 345 60 121 322 328 302 302 143 20 146 251 147 134 275 224 265 244 250 263 263 268 292 271 265 244 244 242 234 232 237 238
293 296 303 306 311 311 312 315 317 318 319 319 318 311 308 302 301 300 303 302 298 297 298 18 118 109 109 245 268 266 294 118 110 129 202 152 168 260 81 62 102 100 299 144 165 128 125 139 137 183 111 189 259 299 5 346 13 281 261 81 252 343 269 281 51 177 210 196 176 158 242 251 269 274 260 257 216 220 244 260 268 264 245 244 234 231 237 243
286 290 295 304 307 306 306 311 313 317 316 315 310 306 302 299 294 297 298 296 290 316 110 99 41 88 117 267 258 296 140 120 166 224 169 151 168 316 190 118 72 51 125 103 143 130 134 112 97 144 255 319 359 320 303 19 354 306 354 266 333 210 271 289 298 192 237 302 202 137 258 242 244 267 275 260 119 168 227 255 262 267 267 247 239 235 240 244
283 289 291 296 300 305 308 309 311 315 312 306 305 302 300 295 296 298 294 267 259 193 159 81 67 109 87 294 253 94 82 199 252 227 219 152 163 197 190 125 107 47 92 6 89 113 42 109 149 192 274 341 253 103 17 9 321 338 199 264 262 221 265 344 292 203 233 178 260 179 241 264 291 259 273 287 230 194 240 259 265 265 268 273 255 244 246 258
285 290 292 295 303 308 309 311 314 317 314 308 306 304 298 299 304 299 321 117 86 101 152 160 110 153 208 240 163 257 233 233 217 25 103 190 150 147 105 75 87 81 59 51 39 85 343 120 287 18 39 209 128 98 35 331 276 268 188 226 198 242 283 268 305 281 215 178 213 232 245 237 248 266 286 291 153 184 228 256 263 266 266 266 275 265 254 248
289 291 291 297 306 309 308 314 319 320 317 314 310 311 311 319 26 98 60 54 80 124 191 164 135 67 272 342 266 241 355 240 34 188 79 44 117 96 100 100 62 95 90 41 354 152 300 154 39 198 339 240 116 112 155 236 220 232 234 258 277 245 226 249 287 264 75 205 215 259 250 260 264 276 279 275 286 251 244 251 260 266 270 271 267 266 263 255
293 292 294 302 304 305 309 317 321 323 320 316 315 311 316 28 44 89 84 33 98 34 38 231 138 172 223 226 274 332 221 210 127 136 186 114 62 104 75 88 109 119 147 103 262 140 355 63 32 82 233 230 216 181 198 227 228 234 224 242 250 261 240 215 234 256 256 270 262 225 255 262 257 261 265 272 271 271 267 260 262 261 260 263 262 262 260 258
288 297 301 302 303 303 310 318 321 324 326 328 348 2 7 17 5 341 348 23 228 187 182 210 223 295 328 293 230 251 108 72 115 334 93 301 118 125 68 97 38 61 126 193 197 217 141 161 168 190 225 222 216 199 215 227 233 258 200 224 248 253 268 258 258 258 173 320 248 259 262 264 265 258 263 266 274 276 271 269 264 259 259 257 259 258 257 256
283 288 293 294 293 299 308 315 319 327 323 332 329 55 67 94 340 303 314 258 252 266 244 233 208 216 228 308 278 132 225 286 127 225 189 139 107 121 219 99 140 178 220 164 154 273 93 181 210 213 226 221 213 216 230 261 296 237 256 257 259 224 268 248 264 264 170 191 271 198 264 268 266 264 261 267 262 259 265 268 266 260 255 258 260 262 259 256
260 275 283 284 290 297 308 313 319 330 324 56 52 76 149 209 145 228 93 305 318 253 242 248 232 268 271 250 218 147 70 294 263 203 259 140 171 157 253 143 165 207 126 117 15 146 197 200 219 226 233 275 303 290 223 222 245 254 237 254 285 257 258 279 266 269 257 194 276 268 260 261 262 262 260 253 255 251 248 254 262 264 265 261 259 258 263 265
249 260 267 278 288 298 307 317 322 348 7 31 47 72 164 248 82 5 76 211 264 262 243 252 237 229 255 261 242 117 236 229 249 161 189 134 82 219 143 153 210 104 151 180 206 180 250 248 235 238 322 280 281 260 171 280 239 227 248 261 249 259 283 285 214 279 357 190 287 269 280 274 266 257 253 247 249 252 248 250 262 256 252 257 256 254 262 269
254 257 266 278 287 296 311 321 324 32 17 119 113 141 219 98 112 109 71 241 275 299 223 230 210 203 224 225 214 174 205 252 177 253 181 146 157 179 127 183 139 148 207 205 215 212 224 229 243 225 183 203 234 241 238 265 263 204 224 237 261 254 241 238 273 335 296 274 249 295 287 276 224 244 245 253 242 255 259 258 258 266 250 248 256 266 258 258
260 269 271 281 286 303 312 324 21 332 153 65 298 251 174 139 133 158 44 308 329 273 292 299 174 240 227 43 106 128 224 274 218 136 189 152 141 85 225 168 124 225 214 209 247 262 268 256 122 140 209 208 217 254 231 227 264 237 217 211 238 249 274 270 283 328 355 317 294 266 328 292 189 202 218 235 283 254 251 249 254 254 256 256 260 252 260 260
256 254 258 264 278 310 312 325 307 266 349 206 204 215 135 115 95 98 92 33 283 265 352 243 136 295 110 194 140 171 105 233 249 212 164 225 150 157 88 203 161 244 192 189 219 222 231 229 177 203 190 204 192 220 233 186 245 262 261 211 239 252 254 268 277 347 285 248 318 8 193 291 140 199 224 245 239 251 264 239 245 253 260 250 255 261 259 257
243 242 247 250 260 350 356 264 247 267 352 326 226 130 136 108 172 97 357 312 310 208 166 270 49 246 3 268 154 130 131 266 293 30 65 336 183 268 171 212 348 306 160 150 16 267 194 258 200 189 158 170 179 235 240 188 236 265 227 187 216 241 239 245 240 213 257 289 268 197 160 245 294 241 209 212 224 233 244 252 254 253 258 253 251 265 267 266
251 249 245 243 218 163 196 304 357 319 233 200 121 116 98 126 106 95 84 324 282 323 100 262 216 327 83 314 97 157 194 352 43 305 256 294 96 332 189 198 199 177 180 105 242 246 163 214 171 165 168 148 197 220 98 155 182 222 284 152 218 213 231 216 188 217 234 21 290 183 97 282 259 286 208 181 207 244 244 245 249 254 257 269 259 253 259 266
242 239 241 240 192 204 116 231 154 245 232 150 123 109 100 115 101 88 105 246 249 72 283 71 288 26 349 9 200 72 320 24 94 308 317 355 12 143 216 230 178 182 245 177 243 240 301 182 202 174 156 214 226 211 166 164 199 268 119 88 75 74 68 141 143 161 315 24 270 169 184 207 277 273 209 22 202 247 243 240 242 248 255 261 268 264 260 266
243 238 235 201 120 93 57 87 227 209 127 135 111 109 108 105 43 31 331 239 22 301 100 239 76 239 55 117 286 354 318 330 107 330 29 146 328 25 328 147 162 229 252 288 251 238 221 344 165 126 201 218 169 203 165 189 191 108 81 84 356 31 26 20 70 82 21 262 267 164 195 168 273 286 189 143 202 206 230 291 280 273 266 261 255 257 263 262
250 240 238 170 176 188 136 232 233 153 148 128 128 105 168 44 133 159 237 216 9 236 17 18 235 10 127 151 239 310 153 297 336 86 58 354 347 37 345 319 39 38 10 307 274 270 190 115 167 247 99 87 104 98 32 11 163 129 237 133 18 306 16 33 339 42 191 267 252 180 183 189 227 280 280 247 295 284 190 219 252 268 272 263 263 264 258 262
325 269 237 190 192 141 173 234 268 140 131 135 93 69 107 243 30 209 223 351 284 269 135 247 328 117 82 19 133 229 177 319 220 135 173 170 149 170 206 195 163 80 313 234 258 26 255 211 214 147 224 155 169 126 307 23 69 134 99 59 247 274 24 324 29 320 193 232 263 276 150 7 244 246 248 294 268 261 240 220 227 252 276 281 270 266 280 294
318 306 264 221 170 197 220 107 104 113 105 80 69 30 128 157 240 219 259 332 265 121 265 88 213 120 162 59 277 249 275 203 225 197 112 94 154 251 261 203 207 177 250 263 260 353 279 290 161 218 90 220 134 179 264 302 206 130 164 164 121 256 241 257 265 240 294 296 245 172 198 246 276 311 215 244 251 241 246 225 235 238 248 266 289 293 283 278
314 301 251 198 204 203 141 141 132 130 101 95 101 93 46 196 234 68 181 198 223 11 74 91 39 43 143 192 240 155 257 244 136 217 159 195 129 250 278 246 173 274 205 319 259 217 313 300 261 145 227 192 173 199 197 176 160 197 111 156 188 173 161 236 204 248 249 249 327 264 127 232 68 243 241 223 250 315 298 272 258 275 280 270 265 270 277 282
320 298 245 235 209 208 143 148 149 132 121 103 96 155 183 236 286 204 245 272 300 329 297 46 53 76 288 289 296 274 205 301 137 107 188 147 226 183 201 219 224 141 145 179 251 80 214 240 256 197 318 143 181 224 98 102 78 213 155 83 73 234 145 240 210 235 267 298 336 214 215 199 227 288 293 251 275 273 269 277 309 280 267 258 273 278 275 276
326 284 203 222 183 194 149 162 150 132 119 138 117 189 220 206 221 180 230 160 332 164 291 358 102 237 242 293 310 61 276 183 276 124 263 195 211 205 216 208 184 190 168 192 185 219 209 271 273 43 37 186 176 120 196 139 220 236 105 190 216 150 155 264 281 263 61 22 256 244 286 275 305 281 259 274 269 266 276 284 275 262 258 276 273 271 274 272
351 313 239 198 221 175 160 158 156 134 156 170 198 233 221 279 186 158 270 171 223 141 55 228 267 192 272 253 245 320 249 76 263 138 267 178 296 210 241 269 181 201 212 176 280 214 241 256 97 129 242 308 73 64 25 6 139 96 150 238 106 131 110 182 242 320 237 243 252 215 270 283 322 279 338 15 324 279 280 261 252 263 287 302 287 279 274 278
324 290 261 231 212 162 158 157 143 146 148 182 215 236 123 219 256 168 192 125 57 28 71 148 270 104 269 153 297 184 294 100 287 74 238 186 263 136 136 257 221 185 215 243 222 293 25 287 273 237 111 269 32 59 325 299 282 193 192 273 140 241 273 271 86 260 244 248 263 211 256 270 271 276 289 274 268 260 259 254 278 288 294 284 287 291 293 288
299 302 290 240 188 156 158 157 162 155 161 208 220 248 171 224 161 179 194 138 148 112 245 231 192 289 138 292 225 332 252 272 112 165 25 253 212 200 179 226 294 210 275 141 317 290 354 287 301 360 80 20 24 87 244 212 357 18 15 294 147 102 234 220 194 200 218 262 258 250 228 251 240 272 276 280 241 237 251 280 269 253 272 299 295 300 302 309
299 248 247 288 84 144 147 148 142 156 198 214 212 229 155 212 239 230 219 180 239 167 247 223 201 250 231 229 210 265 277 206 239 249 195 257 253 278 293 251 260 285 166 175 189 109 290 34 262 249 309 332 276 190 225 192 203 228 193 267 281 218 215 356 334 183 225 253 244 264 249 224 226 249 264 267 266 193 220 236 237 260 280 281 285 278 289 281
285 247 267 82 144 145 139 135 167 192 215 265 245 243 243 250 252 292 260 260 254 300 189 188 164 223 196 259 257 215 243 223 206 236 200 245 213 267 237 248 200 282 318 141 193 169 255 173 249 234 291 244 250 226 195 201 216 232 197 223 216 227 252 253 252 188 234 230 249 246 252 226 210 232 257 265 269 185 231 207 245 267 263 275 288 292 269 296
205 224 253 104 149 151 141 184 211 181 222 207 221 206 241 172 274 248 221 280 201 236 14 197 230 240 215 237 243 211 177 210 215 235 200 239 205 222 248 199 209 228 242 228 198 218 202 159 196 227 220 236 241 256 255 201 226 241 223 246 217 236 232 236 256 237 239 233 252 252 272 238 181 228 250 261 275 263 220 220 243 263 269 275 277 271 284 276
220 227 331 153 192 166 166 209 202 209 223 247 3 291 182 281 203 233 226 187 219 198 244 234 206 222 225 232 211 244 218 253 182 236 211 229 235 225 227 251 205 234 215 293 297 244 96 205 230 247 244 253 244 251 266 206 226 285 261 238 233 236 219 235 241 254 259 257 245 259 245 249 201 242 260 272 279 283 269 213 252 261 257 260 272 283 280 283
290 283 319 286 231 211 181 209 214 217 225 258 245 253 212 214 220 253 228 209 172 204 203 214 273 219 248 208 228 237 164 273 189 234 249 222 258 197 236 235 215 230 193 223 222 234 250 216 244 268 271 275 269 309 294 252 178 224 240 230 231 242 252 258 282 59 264 239 250 255 257 246 242 261 268 275 277 278 281 253 199 244 262 256 265 266 264 266
317 265 224 284 236 214 218 206 237 226 221 236 231 241 246 236 208 231 242 241 182 196 155 256 224 162 237 195 240 245 209 228 277 242 242 187 258 191 227 227 217 237 226 214 215 149 229 226 231 248 246 250 249 246 239 244 231 235 228 257 249 235 238 255 255 247 253 243 245 250 263 260 265 280 286 278 278 280 282 283 196 237 260 266 250 249 256 260
264 291 278 190 253 243 260 274 283 233 233 240 238 239 239 252 252 228 179 246 189 221 221 234 320 348 237 252 249 241 249 237 231 253 229 309 295 340 38 345 333 298 311 286 271 45 266 271 235 242 243 248 252 260 240 112 43 203 221 217 236 238 234 234 253 254 250 259 249 252 266 275 262 273 274 277 280 284 286 288 291 295 285 257 252 280 319 346
287 279 249 281 252 235 257 216 217 204 237 171 243 164 231 238 250 278 178 261 225 210 228 206 227 222 247 224 243 255 245 262 241 257 253 262 295 318 323 348 345 8 5 20 1 45 45 264 240 252 247 250 256 261 266 261 263 250 252 244 238 239 235 232 230 245 245 265 258 251 261 265 268 265 264 272 278 281 282 289 298 303 302 315 7 29 28 19
191 254 353 251 273 222 228 246 267 239 261 220 255 326 266 265 239 247 230 240 341 84 192 343 231 219 248 256 333 263 331 257 260 263 329 23 349 334 334 341 350 22 34 2 343 334 275 245 266 251 259 258 258 261 261 264 257 259 256 258 256 251 248 243 243 245 250 248 262 264 266 267 264 252 255 256 265 272 287 296 303 322 9 37 35 30 24 16
164 300 271 294 68 274 338 319 349 298 306 269 287 244 241 242 250 244 200 318 8 283 215 245 153 75 91 55 50 254 358 271 260 65 69 355 11 304 337 331 195 52 13 353 341 245 281 239 247 259 271 267 267 265 263 261 263 264 259 254 253 257 258 257 259 259 254 259 266 268 265 263 265 268 264 274 290 307 316 336 3 31 29 23 34 31 21 11
303 269 301 1 312 306 300 298 346 331 304 247 269 207 240 236 259 258 243 182 243 266 234 247 59 81 101 109 172 187 265 106 116 277 13 356 331 286 217 233 292 327 355 331 310 295 272 304 350 322 309 294 282 273 270 263 265 263 265 266 262 261 263 262 269 271 275 270 265 261 263 268 273 300 336 14 21 17 23 25 34 25 22 17 16 19 13 8
229 14 301 320 309 246 173 351 246 286 270 232 240 251 249 240 239 57 262 283 178 220 39 141 355 13 116 136 183 230 162 137 211 205 259 265 260 320 353 273 327 306 311 305 213 279 324 283 304 293 296 285 284 284 283 287 281 273 269 266 266 264 264 263 261 250 251 259 266 273 272 277 356 356 349 26 22 21 18 10 15 14 9 12 10 7 2 359
70 290 133 216 263 280 12 280 324 301 246 245 271 281 339 339 52 320 340 259 113 88 94 73 359 358 311 329 315 177 149 208 210 233 232 238 227 246 230 236 242 244 274 282 249 273 264 298 299 310 290 277 281 272 296 297 297 281 263 252 252 254 250 253 254 260 259 266 271 270 300 51 302 352 14 3 7 1 2 3 5 5 7 8 7 357 355 349